Wind_Speed
14 6 7 9 9 10 11 13 13 11 12 14 13 10 9 7 8 10 6 10 11 7 7 10 10 8 9 9 8 16 24 20 19 24 26 28 31 34 32 32 35 35 35 35 33 33 33 34 34 33 33 33 32 31 31 31 31 31 30 30 29 28 26 24 26 29 30 29 26 24 24 23 21 19 18 17 16 15 14 15 16 15 13 11 9 8
14 8 9 12 11 12 12 13 14 13 13 14 12 10 8 7 8 10 8 11 13 8 7 9 10 9 10 10 9 14 16 13 17 20 22 27 31 34 34 33 36 36 35 35 34 33 34 35 35 34 34 34 33 33 32 33 32 32 31 31 31 29 28 27 26 28 29 29 27 25 25 23 22 20 18 18 17 17 16 16 17 16 14 11 10 9
10 9 12 12 11 12 12 11 13 14 14 12 10 9 8 7 7 9 9 13 13 8 6 10 9 8 10 10 9 13 12 12 20 24 24 28 30 33 35 33 36 36 34 36 36 35 34 35 36 35 35 36 35 34 34 34 33 33 33 33 33 32 31 29 27 26 27 28 27 25 24 23 22 21 19 17 16 17 18 17 17 16 14 11 11 10
7 9 12 12 10 12 13 13 13 13 12 10 9 8 8 9 8 7 6 12 12 9 8 10 8 6 8 9 8 15 19 17 22 26 28 32 31 34 38 35 36 38 36 37 38 37 35 35 36 36 36 37 37 36 36 36 35 35 35 36 37 35 33 31 29 27 24 24 25 24 22 20 20 19 17 16 15 16 19 19 18 17 15 13 12 11
9 8 13 14 13 13 14 14 14 10 9 11 13 10 8 11 12 10 6 8 8 8 10 9 5 4 7 10 7 11 17 17 19 23 25 31 33 35 38 37 37 39 39 38 39 40 38 37 38 38 38 38 39 39 39 39 38 37 36 37 38 38 35 34 32 28 25 23 24 23 21 19 19 17 16 16 16 17 19 21 20 16 14 12 12 11
11 12 15 16 15 16 14 13 15 12 7 9 14 15 14 13 13 14 11 6 5 5 9 10 4 4 6 12 11 8 9 11 14 17 19 27 32 33 35 35 36 38 39 40 41 41 40 40 40 40 40 41 41 41 41 41 40 39 37 36 37 38 38 36 34 31 27 25 25 25 24 23 23 22 20 19 18 18 20 21 19 16 14 12 12 12
9 14 15 14 15 17 16 12 14 14 8 7 10 15 19 18 15 16 14 7 4 5 10 13 7 3 4 10 13 12 10 11 12 11 15 23 28 32 34 35 36 37 38 40 41 42 42 41 42 42 43 43 43 43 42 41 40 39 38 37 36 37 38 37 36 33 30 28 27 26 26 26 26 25 24 21 19 18 18 19 18 16 14 12 12 12
8 15 16 16 15 13 13 11 11 13 10 7 9 13 17 19 18 18 15 9 4 4 9 13 9 4 4 7 13 16 14 14 13 11 12 18 25 30 33 36 39 39 39 40 41 42 43 43 43 44 45 45 45 44 43 42 41 41 39 39 38 37 38 37 37 35 32 30 29 28 28 27 26 25 24 23 21 19 17 17 17 16 14 13 14 13
8 13 15 16 15 10 10 11 11 13 11 8 10 11 12 16 18 17 14 9 5 4 5 10 10 5 4 5 10 16 15 15 16 15 12 15 23 29 32 36 39 40 40 41 41 42 44 44 44 45 45 46 45 44 44 43 42 42 40 39 38 38 38 37 37 36 34 31 30 30 30 29 27 24 23 22 22 21 18 18 17 16 15 15 15 15
8 14 16 15 13 9 9 11 14 14 11 9 11 11 11 12 13 14 11 8 6 5 5 9 12 6 4 6 8 11 12 14 16 15 12 15 24 30 31 34 37 40 40 40 42 42 42 44 45 45 45 45 45 44 44 44 43 42 41 40 39 39 38 38 37 37 35 33 31 31 31 31 29 26 24 23 23 24 22 21 19 17 16 15 14 14
11 16 17 12 11 10 10 11 13 15 12 9 10 10 10 10 8 7 7 6 5 5 5 11 16 11 5 6 9 10 12 14 13 12 13 15 21 27 30 32 34 39 41 40 42 43 42 42 44 45 45 45 46 45 44 44 43 43 42 42 41 40 39 39 39 38 37 35 33 32 32 31 30 28 26 25 25 26 26 24 21 19 18 17 16 15
14 15 12 9 12 12 11 10 11 13 13 9 7 7 7 7 5 5 3 4 6 6 5 9 14 14 7 6 9 11 12 16 15 14 15 15 19 26 30 33 34 38 42 42 41 44 43 41 42 45 45 45 46 46 45 44 44 44 44 43 42 41 40 40 40 40 38 36 35 34 33 32 30 29 28 27 26 26 27 25 23 22 21 20 20 18
12 14 11 10 14 14 10 7 7 9 10 10 7 5 6 5 4 5 4 4 5 6 7 8 10 10 7 5 11 14 14 16 17 18 21 20 24 29 31 35 36 37 41 42 42 44 44 43 43 45 46 46 47 47 47 45 45 45 44 44 43 42 42 41 41 41 40 38 36 35 34 33 31 29 29 29 28 26 26 26 26 26 25 24 23 21
7 11 14 12 10 14 13 6 5 7 8 10 8 6 6 5 5 6 5 4 4 5 8 10 9 7 5 5 13 18 16 18 21 27 32 33 34 37 37 38 38 36 38 41 42 44 46 46 45 46 47 48 48 48 48 47 46 46 45 45 44 43 43 42 42 42 41 40 37 36 35 33 33 32 31 31 30 28 26 27 29 28 27 25 24 23
8 7 12 13 7 10 15 10 6 5 6 8 7 6 5 5 5 6 4 4 4 4 6 9 7 5 4 6 13 18 18 22 27 32 37 39 41 42 41 39 39 39 38 40 42 44 46 48 47 47 48 49 49 49 49 48 47 46 46 46 45 44 44 43 43 43 43 41 39 37 35 33 33 33 32 32 31 30 29 28 28 28 27 25 24 23
11 8 8 14 12 10 12 12 10 7 6 6 5 6 8 7 5 4 5 4 3 3 5 6 5 4 5 7 11 14 17 20 22 26 29 33 39 40 36 37 40 42 41 41 43 44 45 48 48 49 49 50 50 49 50 50 48 48 47 47 46 45 45 44 44 44 44 43 41 39 37 34 33 34 34 34 33 32 31 30 29 28 26 25 24 23
9 7 8 14 16 15 12 12 14 11 5 4 7 10 8 7 5 2 3 3 3 5 5 4 4 2 3 6 7 8 13 14 15 19 19 25 36 38 34 37 40 41 41 42 45 47 46 47 48 50 50 50 51 50 51 50 50 49 48 48 47 46 45 45 45 45 44 44 42 41 38 35 34 35 35 35 34 33 33 32 30 28 26 25 24 24
6 4 8 14 16 19 18 13 15 15 9 5 6 8 4 3 3 2 2 3 4 5 5 6 8 6 3 5 8 8 13 14 14 15 14 19 31 34 34 37 39 40 42 43 45 47 47 47 48 50 51 51 51 50 50 51 50 49 48 48 47 46 46 46 46 46 45 45 44 43 40 37 35 36 36 36 35 33 33 33 31 29 27 26 25 25
6 4 7 14 14 17 18 13 11 13 13 9 4 3 4 4 6 4 3 4 5 5 4 5 9 8 5 5 7 10 14 17 16 15 14 16 23 30 35 38 39 41 42 43 44 44 44 46 47 49 51 50 50 49 49 49 49 49 48 48 47 47 47 46 46 46 46 45 45 44 41 38 36 37 37 36 35 34 34 34 33 30 29 28 27 26
6 4 4 10 12 14 13 10 8 8 10 10 7 5 4 4 5 7 5 4 4 4 4 5 6 5 5 6 8 10 12 15 16 15 15 15 21 29 36 39 41 42 42 43 44 44 45 46 47 49 50 49 48 47 47 48 48 49 49 48 48 47 46 46 46 46 46 46 45 44 42 40 38 37 37 37 36 36 36 35 34 32 30 29 29 28
6 5 4 6 7 11 10 8 9 9 8 9 8 9 8 4 3 5 5 5 5 3 3 5 5 5 5 6 9 10 10 13 15 16 15 16 25 34 38 41 43 44 44 44 45 46 47 48 48 49 49 48 47 45 45 47 48 49 50 49 49 47 47 47 47 47 47 46 46 45 44 42 40 39 38 37 36 36 36 36 35 34 32 31 31 30
6 5 4 5 6 7 8 10 14 13 12 11 9 10 10 6 4 4 5 6 7 6 5 4 4 6 6 6 9 9 10 12 14 15 12 14 26 35 40 44 45 45 46 45 46 48 48 48 47 47 47 47 46 46 46 47 48 50 51 50 49 48 48 48 48 48 47 46 46 46 45 43 41 39 39 38 37 36 36 36 36 35 34 34 33 32
8 5 5 6 7 7 7 12 19 19 16 13 11 11 9 6 6 6 5 5 6 5 6 4 4 6 6 7 8 7 8 12 14 14 12 15 26 33 38 45 47 46 48 48 49 48 47 47 46 45 45 46 47 48 48 47 49 51 51 51 50 50 49 48 48 48 48 47 47 47 46 44 42 41 40 39 39 38 37 37 37 36 36 35 35 34
10 5 5 6 6 9 10 8 16 21 17 12 11 11 9 8 8 7 5 4 4 5 5 4 4 5 5 7 6 4 5 11 15 18 18 17 23 29 34 42 46 47 49 49 48 46 44 44 44 43 43 45 47 48 48 49 50 51 51 51 50 50 49 49 48 48 48 48 48 47 47 46 43 42 42 41 40 39 38 37 37 37 37 37 36 36
10 6 6 5 4 6 8 7 8 15 15 8 8 11 12 12 11 9 6 4 4 7 9 5 5 6 4 8 11 7 2 5 8 18 23 20 22 27 30 37 43 45 47 47 46 44 43 41 41 43 45 47 48 48 49 50 50 51 51 51 51 49 48 48 48 48 48 48 48 48 48 47 45 44 43 42 42 41 39 38 37 38 38 38 38 38
11 8 8 8 7 8 9 6 4 8 10 8 8 12 14 15 15 10 6 6 6 7 8 7 5 5 5 11 17 16 9 5 5 13 22 25 29 31 28 33 43 45 44 46 45 43 42 42 42 46 48 49 50 51 51 51 50 50 51 50 50 48 48 48 48 48 48 48 48 49 49 48 47 46 45 44 43 42 41 39 39 39 39 39 39 39
7 7 11 13 10 9 8 7 6 5 8 11 12 14 14 14 15 11 6 7 7 4 5 6 6 6 6 11 17 18 14 10 6 8 14 18 26 32 29 30 42 48 47 46 45 43 43 44 46 48 49 50 51 51 51 51 50 50 49 49 49 48 47 48 48 48 48 49 49 50 50 50 49 47 46 45 44 43 42 41 41 40 40 40 39 39
4 7 14 17 16 13 9 8 10 10 9 13 15 16 16 14 14 12 10 10 7 5 6 8 5 8 9 9 12 14 13 10 7 7 10 12 19 29 31 30 37 44 44 44 45 45 46 46 48 49 49 49 50 51 51 50 50 49 49 48 48 47 47 47 48 48 49 49 50 51 51 51 49 48 47 45 45 44 43 43 42 42 41 40 40 40
2 5 12 16 18 18 14 12 14 13 10 11 15 16 17 18 17 14 12 11 8 7 8 8 6 8 8 7 8 9 8 7 7 7 10 16 19 23 25 28 34 39 40 41 43 44 45 46 46 46 46 47 48 49 49 49 49 48 48 48 48 48 48 48 48 49 49 50 51 51 51 51 50 49 47 46 45 45 44 44 44 43 43 42 42 41
4 3 6 10 14 17 18 18 17 15 12 10 13 16 17 19 20 17 13 10 10 10 10 8 9 9 8 7 7 7 8 5 2 1 3 12 22 23 19 22 28 32 35 39 42 43 44 43 41 41 43 44 45 46 48 48 49 49 48 48 48 49 49 49 49 49 50 51 51 51 50 50 50 49 48 47 47 45 45 45 45 45 44 44 42 41
6 4 4 5 6 10 17 20 20 18 16 13 12 13 16 18 19 18 15 12 10 9 10 11 10 8 7 7 6 5 5 5 3 1 2 3 17 25 23 22 23 25 28 32 36 38 39 39 38 37 38 41 42 44 47 48 48 49 49 48 48 49 49 49 50 50 51 52 52 50 50 49 50 50 49 48 47 46 46 45 45 45 44 44 42 40
6 5 3 2 1 3 8 15 21 19 16 17 16 14 13 14 14 15 15 14 11 8 7 9 9 7 6 6 5 6 5 3 4 7 6 6 8 15 22 27 28 26 26 28 33 36 36 37 37 36 37 38 40 42 45 47 48 48 48 49 50 50 49 49 50 50 51 52 51 50 50 50 49 50 50 49 48 47 46 46 45 44 43 43 42 40
4 5 4 4 1 2 4 8 14 15 14 16 15 13 11 8 6 8 11 14 14 12 7 6 7 7 6 7 8 8 8 6 5 7 12 12 13 12 15 24 32 35 35 35 36 38 40 41 41 40 39 39 41 41 42 45 48 48 49 50 50 50 50 50 51 51 51 51 51 51 51 50 49 49 49 49 49 47 46 46 45 44 43 43 41 40
5 4 6 4 3 2 5 7 5 7 11 10 7 8 11 11 8 6 5 7 10 10 7 6 7 6 4 4 5 7 10 14 16 14 10 9 12 15 16 18 23 27 33 39 41 41 43 44 43 42 41 40 40 40 41 43 45 45 47 50 51 51 51 52 52 52 52 52 52 52 51 50 50 49 48 48 48 48 47 46 45 44 44 42 41 40
7 4 5 3 3 2 3 3 4 6 7 2 2 4 8 10 11 11 10 8 5 4 4 4 4 5 6 5 4 5 4 12 17 16 11 7 9 13 15 15 17 16 18 27 36 40 43 44 43 42 41 40 39 39 41 43 44 43 46 49 51 51 52 53 53 53 53 53 53 52 52 51 50 49 48 47 47 47 46 45 44 44 44 43 42 42
7 3 3 3 4 2 2 3 5 5 2 2 2 2 2 3 6 7 7 8 5 4 4 2 2 4 7 8 10 12 10 7 4 4 8 10 9 11 12 11 11 12 13 18 29 38 42 41 40 41 41 39 39 41 43 43 43 44 47 49 51 52 52 53 54 54 53 53 53 53 53 52 50 48 47 46 46 46 45 45 44 44 43 43 42 41
6 3 2 3 4 4 3 4 5 5 3 2 4 2 1 1 1 3 3 3 6 6 7 6 6 7 7 7 11 14 10 8 8 10 13 15 14 13 16 17 17 16 15 14 22 33 37 35 35 38 39 38 38 41 43 43 43 45 47 49 50 51 52 52 53 54 53 53 53 53 53 51 49 47 46 45 45 45 44 44 44 43 42 42 41 41
7 3 4 6 4 5 5 4 5 6 5 5 2 3 5 6 6 6 6 4 5 6 5 7 8 9 7 6 10 12 11 7 3 7 15 22 23 22 19 19 22 26 27 24 20 22 27 31 33 36 38 39 40 42 42 42 44 46 48 50 51 50 51 52 53 54 53 52 52 53 51 50 49 47 47 46 45 45 44 43 42 41 40 40 41 41
6 2 2 5 4 5 6 6 6 6 4 4 4 4 7 8 8 7 5 1 4 6 7 8 8 9 7 6 7 8 8 5 1 6 19 26 25 25 24 21 21 23 25 27 27 25 26 29 32 33 37 39 40 42 44 45 46 47 48 49 50 51 51 52 53 54 53 51 51 51 50 49 48 47 47 46 44 43 42 40 38 37 36 38 39 39
3 4 2 2 2 5 4 3 4 4 2 3 4 5 9 9 9 7 2 3 4 4 9 10 9 9 9 10 9 7 6 4 3 8 19 23 22 22 21 19 21 24 22 19 19 22 24 27 32 35 39 43 43 42 44 46 48 49 50 49 49 51 52 53 53 52 50 49 49 49 49 48 47 47 46 44 42 40 38 36 35 34 35 36 37 37
3 3 1 2 2 5 4 2 3 2 2 3 2 5 10 10 7 4 4 6 2 6 13 15 13 13 14 13 11 7 7 9 11 13 17 18 19 21 19 16 15 19 21 20 19 18 20 23 30 37 41 43 44 42 44 47 50 50 50 49 50 50 51 51 51 49 46 46 47 47 47 46 46 45 43 41 39 37 36 35 33 33 33 34 34 35
6 4 2 2 2 3 3 2 1 1 2 1 2 5 8 7 3 4 5 3 7 12 17 19 17 16 16 16 15 14 13 13 13 13 16 17 17 19 17 14 13 11 12 14 15 14 16 19 25 33 39 43 45 45 44 47 51 53 51 49 48 48 48 48 48 46 44 44 45 45 45 45 44 42 39 37 37 36 36 33 31 30 31 32 32 32
5 4 3 3 2 1 2 2 2 2 4 0 3 3 4 2 4 5 6 10 16 18 18 20 20 19 19 19 20 20 18 16 15 15 16 16 16 17 16 15 13 10 9 10 11 10 10 11 14 17 23 30 37 44 48 48 46 46 48 48 46 44 44 45 45 44 43 44 44 43 43 42 40 38 37 37 37 36 34 31 28 28 28 29 29 29
3 3 3 4 4 2 0 1 1 5 6 2 5 3 2 5 8 12 13 12 17 19 20 22 22 22 22 22 22 22 20 19 19 19 19 18 16 14 13 13 13 12 9 8 9 9 9 11 13 13 14 16 18 25 36 45 47 45 44 44 43 41 40 41 43 43 43 43 42 41 40 39 38 37 37 37 37 35 32 29 27 26 26 26 26 26
2 3 3 4 4 3 1 3 8 13 10 10 12 9 10 13 16 23 24 19 19 21 23 24 24 24 23 22 23 23 21 19 19 20 20 19 18 15 13 11 12 11 10 6 4 5 6 10 14 16 16 14 12 11 14 23 36 45 46 43 41 40 40 40 41 42 42 42 41 40 39 38 38 38 37 37 35 32 29 28 26 25 25 25 25 24
3 5 2 4 4 4 4 6 12 18 13 16 27 25 25 26 25 28 31 26 24 26 27 26 26 26 26 25 25 25 21 19 19 20 20 19 19 18 15 12 10 10 10 8 5 5 6 6 9 12 12 11 14 16 15 14 17 28 36 39 40 40 40 41 42 41 42 42 41 40 40 39 39 38 36 35 32 29 28 28 26 26 26 25 24 23
5 8 4 4 4 5 4 6 10 16 15 14 30 33 32 31 30 30 31 29 28 30 30 29 27 28 28 29 29 27 25 24 23 22 21 22 22 21 19 16 12 10 9 8 8 7 6 5 6 8 10 11 14 21 25 26 22 21 26 34 39 41 42 43 44 43 43 42 41 39 40 40 38 37 35 33 31 29 28 27 25 25 24 22 21 20
5 9 6 4 3 3 2 7 9 12 14 15 26 30 28 29 30 30 30 30 31 32 31 29 29 30 31 31 30 30 31 31 29 27 27 26 24 22 20 19 16 13 10 7 5 6 5 3 5 8 11 13 16 20 24 29 28 25 25 30 37 43 45 46 46 45 43 41 41 40 39 39 37 36 35 33 31 29 27 25 22 21 20 19 18 16
4 7 5 3 4 2 2 8 11 9 11 15 22 26 26 28 31 30 28 30 32 32 32 32 32 32 33 32 32 34 35 34 32 31 30 29 28 25 21 19 18 17 15 12 8 7 6 4 1 6 10 13 16 17 20 24 23 21 25 32 37 42 47 46 46 45 42 40 40 39 38 37 36 35 34 32 30 28 25 23 20 18 16 16 15 13
2 2 2 2 3 2 3 6 6 2 4 9 15 22 25 27 31 31 29 29 28 27 28 30 31 32 33 32 32 35 36 34 33 33 32 31 31 29 25 22 19 18 16 15 12 10 10 11 8 4 7 14 17 17 20 22 16 13 23 33 34 36 40 40 39 40 39 38 38 37 35 34 32 29 28 27 26 25 23 20 18 16 14 14 13 12
1 1 1 3 4 3 4 4 2 4 3 6 11 19 22 26 30 31 28 27 26 24 25 27 29 30 31 30 29 30 32 32 32 33 34 33 31 30 29 27 24 22 20 18 14 11 12 14 12 8 8 13 16 16 18 19 13 11 20 27 27 28 34 35 35 36 35 34 34 32 30 28 25 22 21 20 18 17 16 14 14 14 14 13 12 12
Wind_Direction
203 216 222 215 219 217 211 215 223 225 228 238 246 246 233 221 234 240 203 161 164 167 168 168 164 164 167 169 179 178 174 176 170 165 169 169 169 173 177 178 181 187 192 193 194 194 194 194 191 192 194 194 197 199 201 202 201 201 199 200 204 207 211 212 206 204 205 206 206 205 205 206 207 211 211 206 203 203 207 215 225 235 239 238 226 227
203 220 226 218 218 225 222 215 220 228 235 239 247 259 254 238 239 234 206 164 161 171 181 174 167 172 173 168 180 182 174 175 174 169 172 171 169 175 179 180 183 187 190 191 194 196 196 196 193 192 195 196 196 200 203 202 201 201 199 199 202 204 209 216 213 207 207 208 209 208 208 210 212 215 213 211 207 200 204 217 227 235 240 237 226 224
206 222 223 220 215 224 235 226 217 224 234 242 246 257 260 259 268 250 210 168 163 173 176 171 176 179 169 166 168 171 179 189 182 177 176 174 170 175 181 182 183 185 187 189 193 196 197 196 194 194 197 198 200 202 204 204 203 203 202 200 202 205 208 215 217 213 209 209 211 212 212 213 216 218 216 216 216 200 201 217 229 237 240 235 231 229
215 216 215 224 223 218 229 234 224 221 226 237 241 245 253 255 267 268 211 171 167 169 162 162 177 183 163 166 168 170 181 191 188 184 181 180 178 177 182 183 182 184 185 187 191 194 197 196 194 195 198 199 200 203 205 206 206 206 208 206 205 207 209 214 219 218 212 208 210 212 214 215 214 217 217 217 218 206 202 214 225 233 236 233 232 230
239 212 198 214 228 223 222 226 227 226 222 226 232 238 249 247 250 265 241 185 173 168 160 151 168 202 162 163 178 176 178 183 188 190 184 184 185 182 182 184 185 185 186 188 190 193 196 197 196 197 199 199 199 202 206 209 210 210 212 211 209 208 210 214 218 219 213 206 207 206 207 207 203 208 216 214 212 206 205 214 222 225 228 226 224 224
238 230 209 206 215 223 224 222 218 223 229 224 224 231 246 254 251 258 256 210 177 182 170 153 170 242 175 161 178 185 178 182 191 196 189 185 185 181 181 184 185 185 187 190 192 193 195 198 198 199 199 199 200 203 207 211 213 213 213 215 213 210 210 213 217 219 215 207 204 203 202 200 196 199 209 213 211 206 207 216 223 223 221 217 216 218
220 226 228 219 210 212 221 228 218 215 227 233 217 217 233 251 258 260 262 239 195 200 183 169 168 234 197 170 179 182 182 191 201 206 189 180 180 180 181 184 185 186 189 192 194 195 195 197 198 199 199 200 201 203 207 210 213 215 214 216 217 214 212 213 216 218 216 210 206 205 205 204 203 202 206 212 215 212 210 216 223 221 215 212 215 214
210 212 224 231 222 211 212 223 219 212 221 232 222 213 217 233 249 258 263 258 230 198 190 182 163 155 204 193 181 179 183 193 203 208 193 181 182 183 183 185 186 189 192 193 194 196 196 197 199 200 201 202 202 203 205 208 212 215 216 216 219 218 215 214 215 217 217 213 209 208 208 208 210 210 209 211 213 215 213 213 217 217 215 216 219 215
216 214 216 224 229 226 208 208 213 216 225 230 230 231 220 221 234 245 256 263 245 220 212 188 161 151 223 217 181 176 180 193 200 200 193 186 189 189 185 185 188 191 194 194 195 196 198 199 200 202 203 203 203 203 205 208 212 215 217 217 218 219 218 215 215 216 217 216 213 211 210 210 213 216 215 212 211 213 212 211 214 215 215 214 215 214
223 224 218 218 226 231 213 202 204 215 226 226 229 241 244 234 232 234 240 255 246 232 231 191 167 164 223 211 182 177 181 190 196 194 188 186 189 189 186 186 189 191 193 196 197 198 200 202 203 204 204 203 203 204 206 209 211 214 216 217 217 219 219 218 216 217 217 216 214 214 213 213 215 216 216 213 211 210 210 211 212 210 208 207 210 214
242 235 227 225 224 225 223 207 198 212 223 221 223 236 251 253 248 243 230 233 247 242 223 196 182 178 207 206 186 188 187 183 184 188 190 189 188 189 188 189 191 192 193 196 199 200 201 204 205 204 204 204 203 205 206 208 211 213 215 217 218 219 220 219 218 217 217 216 215 216 217 217 218 216 215 213 211 209 209 210 208 204 205 206 210 215
239 242 239 237 227 220 223 216 199 205 216 222 218 215 236 257 265 277 260 219 234 240 220 203 195 191 206 216 192 189 184 178 178 185 190 192 194 195 194 194 195 194 194 196 198 200 201 202 203 202 204 204 203 203 205 207 210 213 215 217 217 218 219 219 219 217 217 217 217 217 218 219 220 219 217 216 213 210 208 207 203 200 203 206 211 215
226 234 240 245 237 224 220 219 205 205 210 218 222 201 204 229 242 250 255 225 225 240 222 211 215 210 214 210 188 186 183 178 179 184 187 190 195 198 197 197 199 197 195 196 198 199 200 201 201 201 203 204 203 203 205 206 208 211 214 216 217 217 217 217 218 218 216 217 218 219 220 220 221 220 220 220 217 213 209 203 200 202 206 208 212 214
226 227 228 238 236 217 215 213 199 206 202 205 212 200 182 187 212 226 242 239 227 247 232 220 224 222 232 218 186 187 189 184 181 183 186 189 192 196 198 197 198 200 198 197 197 198 200 201 201 202 203 204 204 204 205 205 207 209 212 214 216 217 217 217 217 217 216 217 219 221 222 221 221 221 220 221 219 216 212 205 203 207 212 215 216 215
227 227 214 222 221 198 205 209 206 198 194 205 206 199 197 191 205 212 217 230 230 250 245 231 223 195 209 215 188 188 192 189 186 185 186 188 190 192 195 196 197 200 202 201 199 198 200 202 202 202 203 204 205 205 205 205 206 208 209 212 215 215 216 216 216 217 217 217 219 221 222 221 221 221 220 221 220 217 215 212 210 213 216 218 219 219
225 237 204 211 220 207 196 195 209 214 202 209 201 208 217 197 190 207 208 220 224 238 248 239 223 185 197 211 191 186 192 190 188 186 185 187 189 189 190 193 196 199 204 204 200 198 201 203 203 202 203 204 205 205 205 205 205 207 209 211 214 215 216 216 216 216 216 218 219 220 221 221 220 220 219 220 219 217 216 216 216 218 218 218 219 219
216 231 206 206 215 221 206 181 199 217 202 182 203 220 218 186 176 196 229 252 237 228 238 238 253 255 206 227 226 186 181 185 184 185 183 180 184 187 188 192 193 195 199 200 199 200 203 205 204 203 203 203 205 205 206 206 206 208 209 210 212 214 216 217 217 216 216 218 219 220 221 220 220 218 218 219 218 216 216 218 219 221 220 217 216 217
213 232 216 206 207 216 217 197 199 213 204 179 204 209 202 215 227 186 196 244 232 235 236 225 242 250 202 230 243 195 175 182 183 181 177 169 174 182 189 192 192 192 194 194 195 200 203 205 205 203 203 204 205 206 207 207 208 208 210 211 212 212 215 218 217 216 217 217 219 220 219 219 219 219 218 219 219 216 215 217 219 220 221 219 217 217
214 245 229 214 205 204 211 210 204 209 206 211 234 188 168 220 229 210 216 211 209 237 245 235 243 236 215 227 226 198 181 182 181 178 173 165 167 174 181 186 188 190 193 194 196 198 201 205 206 204 204 204 205 207 208 208 208 208 210 212 213 214 217 219 217 216 217 218 219 220 219 217 219 219 218 218 218 217 216 216 217 219 220 220 219 218
212 232 244 230 211 187 193 209 203 195 198 212 246 247 217 211 195 197 217 201 190 224 227 235 251 240 233 234 217 204 187 178 177 177 177 170 168 170 173 180 186 189 194 197 199 203 204 206 208 207 206 205 206 207 207 207 208 209 210 211 213 215 217 218 217 216 217 218 219 219 218 217 218 218 218 218 217 217 217 217 218 219 221 221 221 221
214 222 246 261 229 190 189 201 189 177 182 195 218 230 229 229 200 191 202 198 190 203 212 213 232 243 242 234 228 219 198 190 184 178 178 174 172 172 174 180 187 190 195 198 202 206 209 209 209 209 208 206 205 205 207 208 209 210 211 212 213 214 215 215 216 216 217 218 218 218 217 217 218 218 217 217 218 218 218 218 219 221 222 224 225 224
207 210 229 264 254 219 198 186 180 181 185 187 200 222 222 214 213 213 218 212 195 203 214 192 214 252 248 227 235 229 202 198 191 179 176 173 173 176 179 183 189 193 196 200 204 207 209 209 209 208 207 204 202 204 207 209 210 211 211 212 213 214 215 215 216 217 217 217 217 217 217 217 218 218 217 217 218 218 218 219 220 222 224 225 227 228
198 196 214 242 253 253 229 188 181 183 187 188 195 214 221 210 205 214 219 208 199 214 223 205 221 256 255 232 237 245 210 189 177 169 168 172 176 179 183 187 192 195 197 200 204 207 208 209 209 208 206 204 203 205 207 208 209 211 212 212 213 215 216 216 216 217 217 217 217 217 217 217 218 218 217 218 218 219 219 219 221 222 224 227 228 229
190 197 203 229 262 276 270 221 185 182 185 192 197 199 211 218 212 219 223 191 189 211 213 222 236 236 256 255 258 285 217 186 170 167 171 174 176 178 183 188 192 194 197 201 203 204 207 208 208 207 207 205 204 205 206 208 209 210 211 212 214 215 216 216 217 217 217 217 217 216 215 217 218 218 218 219 220 220 220 220 221 223 225 227 229 229
183 199 177 189 232 252 267 267 202 187 187 192 193 190 203 216 215 224 237 208 201 220 206 201 233 228 226 252 270 297 264 175 164 170 173 173 177 183 186 187 190 194 196 200 201 201 203 205 205 206 208 207 205 205 206 207 208 209 210 211 213 215 215 216 216 216 217 218 217 215 215 216 218 218 219 220 221 222 222 222 223 224 225 227 228 229
179 193 177 187 208 209 223 240 208 186 188 190 188 190 198 209 212 215 226 217 221 236 219 193 215 238 203 211 241 264 267 246 210 181 179 178 183 193 193 184 186 193 197 199 199 197 199 202 204 206 207 207 206 205 206 206 207 208 209 211 212 214 215 216 216 216 217 218 217 215 215 215 217 219 220 221 222 223 223 223 224 225 226 228 228 229
184 186 188 196 203 204 212 224 223 200 189 188 189 194 200 207 211 205 208 224 210 202 236 222 200 226 225 201 219 241 247 239 222 183 185 188 188 194 197 189 187 191 196 196 195 194 197 202 204 204 205 206 205 205 205 206 207 208 208 210 211 212 214 215 215 215 217 218 218 217 216 215 217 219 221 221 222 223 223 223 225 226 227 228 229 229
200 185 192 197 202 209 210 219 233 231 209 190 185 193 203 210 216 210 208 222 204 173 246 254 201 210 239 224 217 233 235 226 222 197 177 173 187 194 197 195 190 191 193 193 191 192 194 197 199 200 202 204 204 204 206 206 207 208 208 209 209 210 212 214 215 215 215 218 218 217 217 217 217 219 221 222 222 223 224 224 224 225 227 228 229 230
165 183 194 195 200 211 218 228 237 241 233 205 188 192 199 205 216 224 220 213 197 195 232 236 198 211 240 229 215 226 222 210 222 209 159 142 162 186 190 186 184 186 188 187 188 190 191 193 195 197 201 204 205 204 205 206 207 207 208 209 209 209 211 213 214 214 214 217 219 218 218 218 218 219 221 222 222 223 224 224 224 224 226 227 229 230
126 172 201 198 200 205 214 230 241 247 251 230 203 198 197 200 208 222 235 227 209 216 226 213 203 220 239 239 232 219 192 162 128 245 155 138 150 159 164 170 176 180 180 182 185 189 193 195 197 199 202 205 206 205 206 207 208 207 208 208 208 209 210 211 213 214 214 217 219 219 218 218 219 219 220 221 222 224 224 224 223 223 224 226 228 229
158 186 209 208 214 204 205 219 232 243 251 251 235 213 201 198 198 206 226 237 230 227 221 211 215 232 240 244 261 245 181 135 101 194 298 139 148 150 152 157 167 175 178 181 187 192 197 200 201 203 206 207 209 209 208 209 209 208 208 208 208 210 209 210 212 214 215 217 219 219 218 218 219 219 220 222 223 224 224 223 223 222 223 225 227 228
172 173 161 149 244 230 207 214 220 229 246 255 253 242 219 204 198 198 205 213 222 229 221 215 224 242 245 231 247 274 260 214 182 172 186 222 189 162 158 158 161 171 178 183 190 196 201 204 206 209 212 213 214 213 212 212 210 209 208 209 211 211 209 210 212 215 217 217 218 219 219 218 219 219 220 221 223 224 223 222 221 220 220 224 226 227
204 151 129 120 141 270 272 244 219 211 228 245 246 248 247 240 231 216 201 198 207 217 219 217 215 215 215 198 198 230 250 253 237 187 182 206 222 212 188 172 169 175 183 189 193 196 199 202 206 210 214 217 216 215 215 215 213 212 212 212 212 211 209 210 212 215 217 217 217 219 219 219 219 220 220 221 222 222 221 220 218 219 220 222 225 227
259 145 128 126 124 203 251 278 276 216 219 230 219 220 241 253 260 259 238 205 203 210 214 213 207 197 189 188 195 213 225 232 240 235 207 192 210 218 210 195 186 185 188 193 196 198 199 201 203 207 213 216 215 215 216 216 216 217 218 216 212 210 209 210 212 214 215 216 217 219 219 219 219 220 220 220 219 219 219 219 218 219 220 221 223 225
261 147 120 124 121 140 211 255 294 258 231 222 103 190 226 246 252 258 269 270 258 255 250 227 195 153 126 111 63 24 295 241 233 238 244 241 224 210 201 205 216 220 213 206 204 205 204 202 203 206 209 211 212 213 214 214 216 218 217 214 211 210 210 210 211 213 214 215 216 217 218 218 218 219 218 217 217 216 217 218 218 218 219 220 222 224
263 192 130 130 147 143 153 192 235 259 288 17 328 275 291 294 266 255 270 297 333 33 65 66 59 85 98 97 73 46 11 335 334 329 312 303 278 243 228 233 242 247 246 229 219 216 211 205 205 209 211 213 213 213 213 213 214 215 215 213 211 210 210 209 210 212 213 213 214 215 216 216 215 215 215 214 214 214 215 216 217 217 217 218 221 223
301 284 168 161 171 167 175 217 258 290 313 268 255 268 59 76 144 156 148 18 15 46 85 86 58 47 57 68 64 56 38 13 9 4 357 353 337 299 272 269 274 275 271 250 227 221 218 217 219 219 216 216 216 215 214 213 213 213 213 212 210 210 209 209 210 212 213 213 213 213 214 213 212 212 212 212 212 213 214 215 215 216 216 217 219 221
298 294 186 192 188 166 174 212 256 263 249 224 203 88 93 110 111 114 113 70 1 358 47 82 79 60 50 46 48 51 51 42 5 339 354 358 355 346 325 298 284 278 275 270 251 228 221 226 232 230 225 221 219 217 215 212 211 212 212 211 210 208 208 209 210 212 212 212 212 211 211 210 210 210 210 211 211 212 213 213 214 215 217 218 220 221
278 342 175 191 172 163 185 203 221 232 226 199 177 110 89 97 97 87 79 45 306 340 30 62 74 65 56 39 34 50 60 53 288 327 355 357 356 357 353 336 315 300 286 273 262 251 240 232 229 232 232 227 223 220 217 213 212 211 211 211 210 208 207 208 210 211 212 211 209 209 208 208 208 209 209 209 209 211 212 213 214 216 217 219 220 221
263 30 21 231 155 136 157 208 229 230 216 196 186 130 105 102 95 86 99 239 265 1 40 58 66 62 58 49 41 55 75 55 340 347 359 356 348 348 351 344 327 316 311 299 279 269 263 244 227 224 228 229 229 226 220 215 212 211 211 211 208 208 208 209 210 210 210 208 206 205 205 205 206 207 207 207 208 210 213 214 214 216 217 217 218 219
354 35 25 265 206 132 134 230 247 214 190 203 198 131 114 103 90 107 188 217 217 52 54 60 62 53 51 55 53 48 36 24 13 4 359 350 339 338 345 353 339 315 305 304 300 299 298 275 245 231 227 229 231 230 224 218 214 212 212 209 207 208 210 208 207 207 206 204 202 201 201 201 203 204 204 206 209 210 211 213 215 216 214 213 216 220
359 1 354 297 266 128 137 210 276 306 261 191 107 94 96 99 133 183 176 131 79 68 60 58 55 50 51 56 58 54 44 33 25 11 359 353 348 344 345 355 3 347 321 312 306 306 311 296 264 242 230 227 227 227 224 218 213 210 209 207 206 208 209 205 203 203 201 198 196 195 196 197 199 201 203 206 209 209 208 210 213 212 210 210 215 220
353 342 324 306 297 142 161 151 103 294 284 108 94 50 43 106 183 164 123 79 68 68 66 58 50 47 54 57 56 57 53 42 30 16 7 4 359 353 351 354 5 8 351 332 322 313 302 286 269 251 235 227 227 226 220 212 208 207 206 206 206 205 203 201 200 198 196 193 191 191 192 195 196 199 203 206 206 206 206 206 205 204 204 206 208 212
4 360 333 327 347 9 341 87 63 290 301 56 121 150 127 133 127 109 97 79 69 69 67 61 51 48 56 59 54 51 46 37 31 24 20 21 15 6 1 355 355 4 360 332 313 307 281 247 239 242 238 234 236 231 220 210 207 208 207 205 204 200 197 197 196 193 189 188 187 187 190 193 195 199 201 202 201 201 201 199 197 197 201 203 203 206
8 6 309 292 327 353 315 338 326 309 326 60 85 91 85 81 86 92 90 77 69 71 70 65 59 56 60 61 55 49 41 35 34 32 29 30 26 21 18 3 351 354 0 353 317 289 263 231 223 225 229 234 241 243 229 215 209 207 204 201 198 195 193 192 189 185 183 183 184 186 188 190 192 195 197 197 197 196 194 195 196 197 200 203 204 206
354 9 317 276 331 360 323 329 334 322 335 62 74 68 64 62 67 80 84 77 72 74 73 73 69 64 63 64 59 52 43 38 41 39 35 35 32 28 25 18 2 350 348 351 343 312 285 253 232 226 227 238 244 242 248 249 223 203 197 195 192 189 187 186 183 180 180 181 182 183 186 188 189 191 192 193 193 193 194 197 198 198 200 204 206 208
21 23 2 303 351 18 333 321 339 330 333 56 79 74 69 68 69 74 78 77 77 76 75 76 74 69 66 65 61 56 51 48 47 44 41 41 38 36 36 36 28 14 2 357 352 342 318 279 242 222 218 221 219 218 223 228 224 206 194 191 188 184 183 182 179 176 175 176 177 180 183 185 185 184 185 186 188 192 197 199 198 200 204 208 208 210
7 8 358 331 354 31 304 278 295 325 348 45 79 82 79 78 76 75 76 77 77 77 76 76 75 72 68 64 62 60 57 53 50 49 49 48 45 44 48 52 52 47 41 30 11 2 347 284 230 219 219 209 198 200 206 207 206 202 194 187 183 181 179 176 173 171 171 172 175 178 180 180 179 178 179 182 185 189 194 198 200 205 209 211 213 217
325 340 337 328 330 340 258 268 280 310 354 29 62 78 85 86 84 81 79 77 75 76 76 75 73 71 68 64 63 62 59 55 53 53 54 52 49 47 51 59 63 61 61 65 64 60 61 64 139 207 202 182 173 181 184 179 182 187 181 174 171 167 164 162 163 166 167 169 171 173 174 175 175 175 177 179 182 185 189 193 199 205 210 214 218 223
327 331 300 286 291 256 224 262 279 312 4 10 45 70 82 88 88 84 80 78 77 78 78 77 73 70 68 64 62 62 61 58 56 57 58 56 52 49 47 53 63 66 68 71 72 79 88 80 72 106 156 152 154 158 153 151 157 163 159 158 156 152 151 154 155 156 159 163 166 167 168 169 170 171 175 178 181 183 187 190 196 203 210 215 219 223
254 230 233 248 262 239 219 245 236 122 84 11 43 70 82 89 90 87 83 81 81 79 79 79 75 71 68 65 61 60 60 59 57 58 58 56 55 53 49 48 53 61 69 75 76 82 88 79 66 69 101 119 130 131 125 128 137 139 140 144 146 147 151 154 151 148 152 158 160 162 163 162 160 162 167 172 176 182 188 193 200 206 209 213 218 221
Height
1456 1464 1466 1464 1463 1461 1458 1458 1459 1459 1460 1461 1461 1462 1461 1461 1459 1448 1443 1435 1433 1451 1460 1457 1464 1467 1466 1464 1461 1464 1466 1468 1472 1475 1478 1482 1485 1488 1491 1494 1496 1498 1501 1504 1506 1508 1510 1511 1513 1515 1518 1519 1520 1522 1523 1525 1528 1530 1532 1534 1535 1536 1538 1540 1542 1543 1545 1547 1549 1551 1552 1554 1556 1557 1559 1560 1561 1563 1564 1564 1565 1566 1567 1568 1569 1569
1455 1464 1461 1456 1455 1454 1453 1452 1454 1456 1457 1458 1460 1461 1459 1458 1455 1442 1438 1434 1429 1447 1459 1454 1460 1465 1463 1461 1459 1461 1465 1467 1469 1472 1475 1478 1481 1485 1487 1490 1492 1495 1498 1502 1505 1506 1508 1509 1511 1513 1515 1517 1518 1519 1521 1522 1525 1528 1530 1532 1533 1534 1536 1537 1539 1541 1542 1544 1546 1548 1550 1552 1554 1556 1557 1558 1560 1561 1562 1563 1564 1565 1566 1567 1567 1568
1457 1459 1453 1449 1448 1449 1450 1449 1451 1455 1456 1458 1458 1460 1461 1455 1451 1442 1434 1431 1430 1444 1456 1453 1459 1463 1458 1457 1457 1459 1463 1465 1466 1468 1471 1474 1478 1481 1483 1486 1489 1493 1496 1498 1501 1504 1506 1507 1509 1511 1513 1515 1516 1517 1519 1521 1523 1525 1528 1530 1531 1532 1533 1535 1537 1539 1541 1543 1545 1547 1549 1551 1553 1554 1556 1557 1558 1560 1561 1561 1562 1563 1564 1565 1566 1567
1458 1453 1446 1444 1445 1448 1451 1449 1450 1454 1455 1458 1457 1461 1461 1452 1453 1454 1440 1432 1431 1438 1447 1450 1457 1460 1457 1456 1456 1457 1460 1462 1464 1466 1468 1471 1474 1476 1479 1482 1485 1488 1492 1494 1497 1500 1503 1504 1506 1508 1510 1512 1514 1515 1517 1518 1520 1522 1524 1527 1529 1530 1531 1533 1535 1537 1540 1542 1544 1546 1549 1550 1552 1553 1555 1556 1557 1558 1559 1559 1560 1562 1563 1564 1565 1565
1450 1443 1439 1441 1443 1446 1451 1450 1450 1455 1456 1455 1452 1455 1456 1449 1449 1451 1441 1434 1433 1436 1438 1447 1464 1464 1459 1463 1460 1456 1457 1458 1461 1463 1465 1467 1469 1473 1476 1478 1481 1484 1487 1490 1493 1496 1499 1500 1502 1503 1506 1509 1511 1512 1513 1514 1516 1518 1520 1523 1526 1528 1530 1531 1533 1536 1538 1541 1542 1545 1547 1549 1551 1552 1553 1554 1555 1556 1557 1557 1558 1560 1561 1562 1563 1564
1443 1436 1434 1439 1442 1442 1447 1449 1447 1451 1456 1454 1448 1445 1446 1445 1443 1442 1438 1438 1446 1453 1441 1446 1476 1478 1459 1461 1463 1457 1458 1459 1458 1459 1461 1463 1465 1469 1472 1475 1477 1480 1484 1486 1488 1491 1494 1496 1498 1499 1501 1504 1506 1507 1509 1511 1513 1515 1517 1520 1523 1526 1528 1529 1531 1534 1536 1538 1540 1542 1544 1545 1547 1549 1550 1550 1552 1553 1554 1555 1556 1558 1559 1560 1561 1562
1435 1431 1431 1435 1438 1440 1444 1445 1441 1442 1454 1455 1443 1436 1439 1440 1441 1440 1438 1444 1456 1459 1441 1438 1469 1481 1466 1461 1459 1456 1459 1460 1458 1458 1457 1459 1462 1464 1467 1471 1474 1477 1480 1482 1485 1487 1490 1492 1494 1496 1497 1499 1501 1503 1506 1508 1510 1513 1515 1517 1520 1523 1525 1527 1529 1531 1534 1536 1538 1539 1541 1542 1544 1545 1547 1548 1550 1551 1553 1553 1554 1556 1558 1558 1559 1560
1428 1430 1431 1431 1434 1437 1440 1442 1436 1435 1448 1451 1434 1430 1436 1437 1440 1439 1438 1445 1448 1445 1439 1434 1449 1471 1473 1462 1453 1453 1459 1461 1459 1458 1456 1455 1458 1461 1463 1466 1469 1472 1475 1478 1481 1483 1486 1488 1490 1491 1493 1495 1497 1500 1502 1505 1507 1509 1512 1514 1517 1520 1522 1525 1527 1528 1531 1533 1535 1537 1539 1540 1542 1543 1545 1547 1548 1550 1551 1552 1553 1554 1556 1557 1557 1558
1422 1427 1428 1428 1432 1434 1433 1432 1429 1430 1440 1439 1427 1426 1431 1432 1435 1435 1436 1443 1440 1443 1453 1443 1441 1466 1474 1457 1447 1450 1458 1463 1461 1457 1454 1452 1454 1457 1459 1462 1465 1468 1470 1473 1477 1479 1482 1484 1486 1488 1490 1493 1496 1498 1499 1501 1503 1505 1508 1511 1514 1517 1519 1522 1524 1526 1528 1530 1533 1535 1536 1538 1540 1542 1544 1546 1547 1548 1549 1550 1551 1553 1554 1555 1556 1557
1418 1418 1418 1420 1427 1427 1424 1421 1420 1426 1432 1427 1423 1425 1426 1427 1429 1431 1436 1440 1441 1450 1461 1448 1441 1463 1472 1456 1448 1452 1456 1459 1456 1451 1449 1448 1450 1453 1455 1458 1461 1464 1467 1469 1472 1475 1478 1480 1483 1485 1487 1490 1493 1495 1497 1499 1500 1503 1505 1508 1511 1513 1516 1518 1521 1523 1525 1528 1530 1532 1534 1535 1537 1539 1541 1544 1545 1546 1547 1548 1550 1551 1552 1553 1553 1554
1412 1409 1409 1411 1415 1415 1414 1414 1412 1417 1421 1420 1423 1429 1431 1430 1429 1431 1432 1435 1448 1458 1454 1443 1437 1451 1466 1457 1446 1444 1442 1443 1445 1446 1445 1444 1446 1449 1451 1455 1457 1460 1462 1465 1468 1471 1474 1476 1479 1482 1484 1486 1489 1491 1494 1497 1498 1500 1502 1504 1507 1509 1512 1515 1517 1520 1522 1524 1527 1529 1531 1532 1534 1537 1538 1540 1542 1543 1545 1546 1547 1548 1550 1551 1552 1553
1412 1412 1409 1404 1404 1404 1409 1412 1409 1409 1413 1419 1426 1433 1441 1442 1437 1440 1439 1440 1458 1463 1446 1435 1431 1442 1459 1453 1437 1431 1426 1427 1435 1439 1440 1440 1441 1444 1447 1450 1453 1455 1458 1460 1464 1467 1470 1473 1475 1479 1481 1483 1485 1487 1490 1493 1495 1497 1498 1500 1503 1506 1509 1511 1514 1516 1519 1521 1523 1525 1528 1530 1532 1534 1535 1537 1539 1540 1542 1544 1545 1546 1547 1549 1550 1551
1415 1412 1407 1403 1401 1399 1408 1416 1414 1412 1413 1420 1428 1435 1449 1456 1455 1458 1456 1452 1459 1455 1436 1429 1431 1440 1446 1436 1425 1422 1419 1419 1422 1426 1430 1432 1435 1438 1442 1445 1448 1451 1454 1456 1459 1462 1465 1468 1471 1473 1476 1478 1481 1483 1485 1488 1490 1493 1495 1497 1499 1501 1504 1508 1510 1513 1515 1518 1520 1522 1524 1526 1529 1531 1532 1534 1536 1538 1539 1541 1543 1543 1545 1546 1548 1549
1422 1413 1404 1407 1404 1396 1402 1415 1423 1421 1418 1423 1428 1436 1450 1459 1468 1474 1465 1457 1457 1447 1429 1422 1429 1439 1436 1423 1415 1413 1411 1409 1411 1414 1419 1423 1427 1432 1436 1440 1444 1446 1449 1452 1454 1457 1460 1463 1465 1468 1470 1472 1475 1477 1480 1483 1486 1488 1491 1493 1496 1498 1501 1504 1507 1509 1512 1514 1516 1519 1521 1523 1525 1527 1529 1531 1533 1535 1537 1539 1540 1541 1542 1543 1545 1546
1430 1424 1408 1405 1403 1395 1397 1404 1412 1415 1416 1418 1416 1425 1439 1444 1456 1466 1461 1458 1456 1446 1433 1426 1430 1437 1433 1418 1405 1401 1400 1400 1403 1407 1411 1416 1421 1426 1431 1434 1438 1441 1445 1448 1450 1452 1455 1457 1460 1462 1465 1467 1469 1473 1476 1478 1481 1484 1487 1489 1492 1494 1497 1500 1503 1506 1508 1510 1513 1515 1517 1520 1522 1524 1526 1528 1530 1532 1534 1536 1538 1539 1540 1541 1543 1544
1424 1421 1400 1393 1392 1390 1395 1395 1396 1407 1416 1414 1409 1420 1430 1426 1432 1443 1444 1442 1444 1445 1440 1432 1428 1422 1413 1403 1392 1392 1396 1395 1399 1403 1406 1412 1416 1421 1427 1430 1433 1437 1440 1443 1446 1448 1450 1452 1455 1457 1460 1462 1465 1468 1471 1473 1476 1479 1482 1485 1488 1490 1493 1496 1499 1502 1505 1507 1510 1511 1514 1516 1518 1520 1523 1525 1528 1529 1531 1533 1535 1536 1538 1540 1541 1542
1417 1414 1393 1389 1389 1385 1390 1390 1389 1401 1413 1411 1413 1418 1413 1406 1416 1433 1440 1432 1436 1451 1444 1429 1426 1416 1408 1404 1392 1391 1398 1398 1399 1401 1402 1407 1411 1416 1421 1424 1428 1432 1435 1438 1441 1443 1446 1448 1451 1453 1456 1458 1461 1463 1466 1468 1471 1474 1477 1480 1484 1487 1490 1493 1495 1498 1501 1504 1506 1508 1510 1513 1515 1517 1519 1522 1524 1527 1529 1531 1533 1534 1536 1538 1539 1540
1407 1410 1392 1387 1393 1385 1380 1385 1385 1386 1395 1407 1415 1409 1402 1406 1412 1424 1441 1441 1445 1458 1444 1427 1429 1426 1423 1419 1400 1393 1401 1401 1399 1399 1399 1402 1406 1412 1417 1420 1424 1427 1430 1433 1435 1438 1441 1443 1446 1449 1451 1454 1456 1459 1462 1465 1468 1471 1474 1477 1480 1483 1486 1488 1491 1494 1497 1500 1502 1504 1506 1509 1511 1513 1516 1519 1522 1524 1526 1528 1530 1532 1533 1535 1537 1538
1396 1409 1397 1380 1387 1384 1375 1386 1393 1385 1384 1396 1402 1397 1404 1423 1427 1427 1439 1446 1452 1458 1446 1431 1428 1424 1423 1419 1404 1399 1400 1398 1396 1395 1397 1399 1401 1405 1411 1415 1419 1422 1425 1429 1431 1435 1437 1439 1443 1445 1448 1451 1453 1456 1459 1463 1467 1469 1472 1474 1476 1479 1481 1485 1488 1491 1494 1496 1498 1500 1503 1506 1508 1510 1513 1516 1519 1521 1523 1525 1527 1529 1530 1532 1534 1535
1389 1405 1404 1381 1375 1380 1379 1387 1399 1398 1390 1391 1396 1397 1402 1414 1422 1424 1427 1432 1442 1452 1447 1439 1433 1424 1413 1403 1398 1398 1394 1391 1393 1392 1393 1395 1396 1399 1404 1409 1413 1417 1421 1423 1427 1430 1432 1435 1437 1440 1443 1446 1450 1453 1457 1461 1464 1466 1469 1471 1473 1476 1479 1482 1485 1488 1491 1493 1495 1497 1500 1503 1505 1508 1510 1513 1515 1518 1520 1522 1524 1525 1527 1529 1531 1532
1386 1397 1403 1387 1373 1379 1385 1385 1390 1397 1397 1399 1405 1406 1406 1406 1408 1414 1416 1416 1426 1440 1443 1442 1440 1424 1402 1389 1389 1390 1388 1386 1386 1386 1387 1388 1390 1394 1398 1402 1407 1411 1415 1418 1421 1424 1427 1430 1432 1435 1439 1442 1446 1451 1454 1457 1460 1463 1466 1468 1470 1473 1476 1479 1482 1484 1487 1489 1492 1494 1496 1499 1502 1505 1507 1510 1512 1515 1517 1519 1521 1523 1525 1526 1528 1529
1385 1392 1399 1394 1384 1383 1382 1372 1373 1381 1386 1393 1401 1401 1403 1406 1410 1420 1424 1413 1411 1423 1429 1433 1437 1420 1392 1380 1380 1380 1381 1381 1378 1379 1382 1383 1386 1390 1393 1397 1401 1405 1409 1413 1416 1420 1423 1426 1430 1433 1436 1440 1443 1446 1449 1452 1455 1459 1461 1464 1467 1469 1472 1475 1478 1480 1483 1486 1488 1490 1493 1496 1499 1502 1504 1507 1509 1512 1514 1516 1517 1520 1522 1523 1524 1525
1374 1384 1393 1394 1386 1379 1371 1361 1362 1368 1372 1381 1389 1390 1395 1401 1407 1420 1427 1416 1409 1414 1414 1418 1428 1414 1385 1374 1375 1374 1374 1373 1372 1374 1378 1381 1384 1388 1390 1393 1396 1400 1404 1408 1411 1415 1418 1422 1427 1431 1434 1437 1438 1440 1443 1447 1450 1453 1456 1460 1463 1465 1468 1471 1475 1477 1480 1482 1484 1487 1490 1493 1496 1499 1501 1504 1506 1508 1511 1513 1515 1516 1518 1520 1521 1522
1368 1380 1390 1393 1384 1373 1364 1358 1356 1358 1366 1378 1382 1383 1389 1395 1397 1404 1409 1407 1410 1414 1414 1421 1429 1413 1384 1372 1372 1371 1370 1368 1368 1370 1373 1377 1381 1385 1388 1390 1392 1396 1399 1403 1407 1411 1415 1419 1423 1428 1432 1434 1435 1437 1439 1442 1445 1448 1452 1456 1459 1461 1465 1468 1472 1475 1477 1479 1481 1484 1487 1490 1493 1495 1498 1500 1502 1504 1507 1510 1512 1513 1515 1516 1518 1519
1366 1376 1385 1395 1399 1392 1383 1377 1371 1365 1366 1375 1379 1379 1383 1386 1389 1396 1398 1401 1409 1410 1409 1421 1427 1409 1385 1374 1370 1370 1371 1370 1369 1369 1372 1375 1378 1382 1385 1386 1390 1394 1397 1400 1404 1407 1412 1416 1420 1424 1427 1429 1431 1433 1434 1437 1440 1443 1447 1451 1454 1458 1462 1466 1469 1472 1474 1476 1479 1481 1484 1486 1489 1491 1493 1496 1498 1501 1504 1506 1508 1510 1511 1513 1514 1516
1359 1368 1375 1389 1402 1404 1398 1390 1383 1375 1370 1371 1373 1375 1378 1380 1386 1393 1398 1406 1413 1407 1401 1410 1413 1399 1384 1378 1374 1372 1374 1375 1373 1371 1371 1372 1375 1377 1380 1384 1388 1391 1394 1397 1400 1404 1408 1412 1415 1418 1421 1424 1426 1428 1430 1433 1436 1439 1443 1447 1450 1455 1459 1462 1466 1469 1471 1474 1476 1478 1480 1482 1485 1487 1489 1492 1494 1497 1500 1502 1504 1506 1507 1509 1511 1512
1352 1358 1361 1371 1381 1385 1383 1376 1367 1366 1371 1373 1372 1373 1375 1377 1379 1386 1396 1403 1404 1403 1402 1399 1396 1394 1389 1383 1378 1373 1372 1375 1374 1372 1372 1372 1373 1375 1377 1381 1383 1386 1390 1393 1397 1401 1404 1407 1411 1413 1417 1419 1422 1425 1427 1429 1433 1436 1439 1443 1447 1451 1455 1459 1462 1465 1468 1470 1472 1474 1476 1478 1480 1483 1485 1488 1491 1494 1496 1498 1500 1502 1503 1505 1507 1508
1349 1356 1355 1359 1365 1366 1365 1363 1358 1359 1366 1368 1369 1372 1373 1374 1376 1382 1390 1391 1390 1401 1407 1394 1387 1393 1391 1382 1379 1374 1370 1371 1372 1370 1371 1371 1372 1374 1374 1377 1380 1383 1386 1390 1394 1397 1400 1403 1407 1410 1413 1416 1419 1422 1424 1426 1429 1432 1435 1439 1443 1447 1451 1454 1458 1460 1463 1466 1468 1470 1472 1474 1477 1479 1482 1485 1487 1490 1492 1494 1496 1497 1499 1501 1503 1504
1344 1353 1350 1352 1358 1358 1357 1358 1356 1356 1359 1360 1362 1367 1369 1371 1374 1378 1381 1380 1382 1394 1398 1389 1386 1390 1384 1377 1375 1372 1368 1368 1368 1368 1368 1368 1370 1372 1373 1374 1377 1380 1384 1387 1391 1395 1398 1401 1404 1407 1410 1412 1415 1419 1421 1424 1427 1429 1432 1435 1438 1442 1445 1449 1453 1456 1459 1461 1462 1464 1468 1471 1474 1476 1479 1481 1484 1486 1488 1489 1492 1493 1495 1497 1498 1500
1338 1349 1346 1348 1355 1355 1355 1356 1354 1355 1358 1357 1357 1359 1362 1365 1368 1371 1374 1374 1376 1382 1382 1381 1384 1383 1376 1371 1368 1364 1363 1364 1364 1366 1367 1367 1368 1369 1372 1375 1377 1380 1382 1385 1389 1393 1396 1399 1401 1404 1407 1410 1413 1416 1418 1421 1423 1425 1428 1431 1434 1438 1441 1444 1448 1451 1454 1456 1457 1460 1464 1467 1470 1473 1475 1477 1479 1481 1483 1485 1488 1489 1491 1493 1495 1497
1332 1346 1344 1345 1355 1356 1352 1352 1353 1355 1358 1359 1357 1355 1355 1359 1364 1368 1371 1371 1373 1377 1375 1376 1381 1379 1370 1363 1360 1359 1360 1362 1365 1366 1367 1369 1370 1369 1371 1375 1379 1382 1384 1386 1389 1392 1394 1396 1399 1402 1404 1407 1410 1413 1415 1417 1419 1422 1424 1427 1430 1433 1437 1440 1443 1446 1448 1450 1453 1457 1460 1463 1466 1468 1470 1472 1474 1476 1479 1481 1484 1486 1488 1490 1492 1495
1332 1342 1341 1346 1361 1361 1352 1352 1354 1353 1357 1361 1358 1354 1354 1357 1361 1362 1363 1364 1369 1374 1375 1377 1381 1378 1367 1361 1360 1358 1357 1360 1365 1366 1366 1369 1372 1373 1373 1373 1376 1381 1384 1386 1388 1390 1392 1395 1398 1400 1402 1404 1406 1408 1411 1413 1416 1418 1420 1423 1425 1428 1433 1436 1438 1441 1444 1446 1450 1454 1455 1458 1461 1463 1465 1467 1470 1472 1475 1478 1481 1483 1486 1487 1489 1492
1336 1338 1341 1350 1364 1364 1355 1353 1352 1356 1368 1367 1354 1350 1353 1354 1355 1357 1356 1356 1358 1363 1371 1377 1375 1368 1361 1359 1361 1360 1357 1358 1361 1364 1365 1367 1370 1373 1375 1374 1374 1376 1379 1383 1385 1387 1389 1390 1393 1397 1399 1401 1402 1404 1406 1409 1411 1413 1415 1417 1420 1424 1428 1431 1433 1436 1439 1442 1446 1448 1450 1453 1456 1458 1460 1463 1465 1469 1472 1475 1478 1480 1482 1484 1486 1488
1339 1337 1340 1348 1360 1365 1358 1352 1355 1369 1378 1364 1343 1340 1347 1348 1351 1356 1356 1354 1352 1354 1358 1361 1360 1357 1357 1359 1360 1361 1358 1355 1356 1359 1362 1364 1366 1369 1372 1373 1375 1375 1376 1378 1379 1381 1384 1385 1388 1392 1394 1396 1398 1399 1402 1404 1406 1408 1410 1413 1416 1419 1422 1425 1428 1431 1434 1437 1441 1443 1446 1449 1451 1453 1456 1459 1462 1466 1468 1471 1474 1477 1479 1481 1483 1485
1343 1338 1341 1345 1355 1362 1357 1359 1378 1388 1372 1348 1334 1335 1338 1339 1343 1349 1351 1349 1350 1351 1353 1354 1354 1354 1355 1356 1357 1357 1357 1355 1355 1357 1359 1361 1364 1367 1369 1371 1374 1375 1377 1378 1378 1379 1380 1381 1385 1388 1390 1392 1394 1395 1397 1399 1401 1404 1406 1409 1412 1414 1417 1419 1422 1425 1428 1431 1435 1438 1441 1444 1446 1449 1452 1456 1459 1462 1465 1468 1471 1473 1476 1477 1479 1481
1343 1339 1340 1345 1354 1361 1363 1372 1387 1380 1354 1339 1337 1335 1335 1339 1342 1348 1355 1354 1350 1351 1354 1357 1357 1353 1352 1352 1352 1354 1356 1356 1356 1356 1358 1360 1362 1365 1367 1369 1371 1373 1375 1376 1377 1377 1377 1379 1381 1383 1386 1388 1390 1392 1393 1395 1397 1400 1402 1404 1407 1409 1412 1415 1417 1420 1422 1425 1429 1433 1436 1439 1442 1446 1449 1453 1456 1458 1461 1464 1466 1469 1472 1474 1476 1478
1341 1340 1340 1346 1353 1359 1368 1374 1371 1363 1355 1350 1345 1338 1338 1343 1345 1350 1361 1364 1356 1351 1353 1356 1357 1355 1353 1351 1351 1351 1354 1356 1358 1358 1358 1361 1363 1364 1366 1367 1369 1372 1373 1374 1376 1376 1377 1379 1379 1380 1382 1384 1386 1388 1389 1391 1394 1395 1398 1400 1402 1405 1408 1411 1413 1415 1417 1420 1423 1427 1431 1435 1439 1442 1446 1449 1451 1453 1456 1459 1462 1465 1468 1471 1473 1474
1339 1340 1341 1349 1353 1355 1366 1375 1374 1375 1372 1358 1346 1339 1336 1339 1341 1343 1357 1369 1362 1353 1352 1354 1356 1356 1355 1354 1353 1352 1354 1361 1367 1365 1361 1361 1363 1364 1364 1364 1366 1368 1370 1372 1374 1375 1377 1378 1378 1378 1379 1380 1382 1383 1385 1387 1389 1391 1393 1395 1397 1400 1403 1406 1408 1410 1412 1415 1419 1423 1427 1431 1435 1438 1441 1444 1446 1449 1453 1456 1459 1462 1465 1467 1469 1471
1339 1339 1339 1347 1353 1354 1364 1375 1377 1376 1368 1352 1343 1339 1336 1338 1338 1341 1360 1375 1366 1355 1354 1354 1356 1358 1357 1357 1356 1354 1360 1371 1374 1368 1363 1362 1363 1363 1364 1363 1363 1365 1366 1368 1370 1371 1373 1374 1375 1377 1377 1377 1378 1379 1381 1383 1384 1385 1387 1389 1391 1395 1397 1400 1403 1406 1408 1411 1414 1418 1422 1427 1431 1435 1438 1440 1443 1447 1450 1453 1457 1460 1462 1464 1466 1468
1341 1344 1346 1352 1355 1355 1363 1371 1368 1362 1356 1346 1340 1338 1338 1337 1338 1353 1379 1382 1364 1354 1356 1356 1357 1359 1359 1359 1360 1360 1367 1374 1373 1368 1365 1364 1364 1365 1366 1365 1364 1365 1365 1365 1366 1366 1367 1369 1370 1371 1371 1372 1373 1375 1376 1378 1379 1380 1381 1382 1386 1389 1391 1394 1398 1401 1405 1408 1411 1415 1419 1423 1428 1431 1434 1438 1442 1445 1449 1451 1454 1457 1459 1460 1462 1464
1347 1347 1351 1355 1356 1355 1363 1370 1364 1355 1348 1342 1338 1337 1337 1339 1349 1370 1383 1373 1357 1355 1357 1356 1358 1360 1359 1360 1362 1365 1368 1369 1368 1366 1365 1364 1364 1366 1366 1366 1366 1366 1366 1365 1364 1363 1364 1364 1364 1364 1365 1367 1369 1370 1372 1373 1373 1374 1376 1378 1381 1383 1386 1390 1394 1399 1403 1406 1409 1412 1416 1420 1425 1429 1433 1437 1441 1444 1446 1449 1451 1453 1455 1457 1459 1460
1369 1364 1359 1357 1355 1355 1360 1366 1367 1361 1346 1337 1337 1337 1338 1349 1365 1372 1367 1358 1356 1358 1358 1358 1360 1361 1361 1362 1363 1366 1368 1367 1367 1367 1365 1365 1365 1365 1365 1365 1365 1365 1365 1363 1361 1360 1360 1360 1360 1360 1361 1362 1364 1366 1367 1368 1368 1369 1371 1374 1376 1379 1383 1388 1392 1396 1400 1403 1406 1410 1413 1418 1422 1427 1432 1436 1438 1440 1443 1445 1448 1450 1452 1455 1457 1459
1382 1381 1376 1365 1355 1354 1358 1365 1375 1373 1351 1336 1341 1346 1347 1356 1363 1359 1354 1356 1359 1359 1359 1361 1362 1362 1363 1363 1363 1365 1367 1367 1369 1369 1368 1367 1365 1364 1364 1364 1363 1363 1362 1359 1358 1357 1356 1357 1359 1361 1361 1362 1363 1363 1363 1365 1367 1369 1371 1373 1374 1378 1382 1386 1390 1393 1397 1401 1404 1407 1411 1416 1421 1425 1429 1432 1435 1438 1441 1443 1445 1447 1450 1452 1455 1457
1383 1387 1390 1379 1367 1367 1372 1372 1375 1370 1351 1339 1345 1352 1354 1354 1353 1351 1353 1357 1359 1360 1361 1361 1362 1363 1363 1362 1363 1365 1366 1367 1370 1370 1369 1368 1365 1364 1363 1362 1362 1361 1360 1358 1357 1356 1355 1356 1358 1360 1361 1363 1365 1365 1363 1363 1366 1368 1371 1373 1375 1378 1381 1385 1388 1391 1394 1398 1402 1405 1410 1414 1419 1423 1427 1429 1433 1436 1438 1440 1442 1444 1446 1449 1450 1452
1388 1389 1393 1389 1381 1380 1382 1378 1372 1363 1352 1347 1348 1350 1352 1352 1351 1351 1353 1356 1360 1362 1361 1362 1364 1365 1364 1364 1366 1367 1368 1370 1371 1370 1369 1367 1365 1364 1363 1362 1362 1361 1360 1360 1358 1356 1356 1356 1356 1358 1360 1362 1366 1370 1369 1367 1367 1367 1368 1370 1372 1375 1379 1383 1387 1389 1393 1397 1400 1403 1408 1413 1417 1422 1425 1428 1431 1433 1435 1438 1439 1441 1443 1445 1447 1449
1386 1386 1387 1386 1383 1380 1379 1377 1372 1365 1358 1353 1352 1352 1354 1354 1354 1354 1355 1359 1363 1363 1363 1365 1367 1368 1368 1368 1368 1370 1372 1373 1371 1370 1369 1367 1365 1364 1363 1362 1361 1361 1360 1360 1359 1358 1358 1358 1358 1360 1361 1362 1367 1373 1376 1376 1375 1373 1371 1369 1370 1372 1376 1381 1385 1388 1391 1395 1398 1402 1406 1411 1416 1421 1424 1427 1430 1432 1434 1435 1437 1439 1441 1444 1446 1448
1384 1384 1385 1385 1385 1386 1386 1382 1377 1373 1367 1357 1351 1352 1355 1357 1359 1360 1360 1363 1365 1364 1365 1367 1368 1370 1371 1370 1371 1373 1374 1373 1372 1371 1369 1368 1367 1366 1364 1363 1362 1361 1360 1360 1360 1360 1361 1360 1360 1361 1361 1362 1364 1368 1373 1376 1377 1378 1377 1372 1369 1369 1373 1378 1382 1385 1388 1393 1398 1402 1406 1410 1415 1420 1423 1426 1428 1431 1433 1434 1437 1439 1441 1443 1445 1447
1385 1385 1386 1385 1385 1388 1391 1388 1382 1379 1374 1362 1353 1352 1356 1359 1361 1363 1365 1367 1366 1366 1368 1369 1370 1371 1371 1372 1373 1374 1372 1372 1372 1371 1369 1369 1368 1368 1367 1365 1364 1362 1361 1360 1360 1361 1362 1363 1362 1361 1361 1362 1362 1363 1365 1367 1371 1376 1378 1375 1370 1368 1370 1374 1377 1381 1387 1392 1397 1402 1406 1411 1415 1418 1421 1424 1427 1429 1432 1434 1437 1439 1440 1442 1443 1445
1388 1389 1389 1388 1388 1389 1391 1390 1385 1381 1377 1369 1361 1357 1358 1360 1361 1364 1367 1369 1368 1370 1372 1373 1374 1374 1374 1375 1375 1373 1372 1373 1373 1371 1370 1370 1370 1370 1370 1368 1366 1365 1363 1362 1362 1362 1363 1364 1365 1363 1362 1361 1362 1363 1363 1364 1369 1375 1376 1375 1372 1368 1368 1372 1376 1380 1386 1392 1397 1402 1407 1410 1414 1416 1419 1422 1425 1428 1431 1434 1437 1439 1441 1442 1443 1443
1390 1392 1391 1392 1394 1393 1391 1389 1385 1381 1380 1378 1371 1364 1362 1362 1362 1364 1368 1370 1372 1375 1376 1376 1377 1377 1377 1377 1377 1376 1376 1377 1376 1374 1373 1372 1372 1372 1372 1371 1369 1367 1365 1364 1364 1364 1364 1365 1366 1367 1365 1363 1362 1363 1364 1366 1372 1375 1372 1372 1372 1372 1373 1378 1381 1383 1388 1393 1399 1404 1407 1410 1413 1417 1419 1422 1425 1428 1431 1433 1436 1439 1441 1442 1442 1443
1391 1391 1392 1395 1395 1391 1388 1386 1382 1379 1381 1382 1377 1370 1367 1366 1364 1365 1369 1372 1374 1378 1379 1379 1379 1379 1379 1380 1380 1379 1379 1380 1380 1378 1376 1375 1375 1374 1373 1373 1372 1369 1367 1366 1365 1365 1365 1366 1369 1371 1371 1369 1367 1365 1366 1370 1376 1377 1374 1374 1377 1379 1381 1385 1386 1388 1392 1398 1402 1405 1407 1410 1414 1417 1420 1423 1426 1429 1432 1434 1436 1439 1441 1442 1442 1443